User: anonymous   Login
Location: Unspecified
(0.0000°N, 0.0000°E)
Time: 00:47:25
(UTC+00:00)
Language:

COSMOS 2508 - Orbit

View from above orbital plane
View from above orbital plane
View from above satellite
View from above satellite

Ground track
Ground track

The orbit data is extracted from the following two-line orbital elements,

1 40921U 15050B   18232.46060689  .00000010  00000-0  15689-5 0  9997
2 40921  82.4840  58.3206 0014204 130.6188 229.6133 12.42880609131861
Epoch (UTC): 20 August 2018 11:03:16
Eccentricity: 0.0014204
inclination: 82.4840°
perigee height: 1483 km
apogee height: 1505 km
right ascension of ascending node: 58.3206°
argument of perigee: 130.6188°
revolutions per day: 12.42880609
mean anomaly at epoch: 229.6133°
orbit number at epoch: 13186

The dashed part of the orbit path shows where the satellite is in the earth's shadow,  

DLR